contact:dominique.lefevre@mio.osupytheas.fr, maurice.libes@osupytheas.fr, didier.mallarino@osupytheas.fr
Project:EMSO http://www.emso-fr.org/EMSO-France
Depth: 2436.0 m
Title:EMSO Ligure Ouest : Data MII capteur AQUADOPP
Date,Latitude,Longitude,X_East,Y_North,Z_Up,Amplitude_X,Amplitude_Y,Amplitude_Z,Batterie,SoundSpeed,Heading,Pitch,Roll,Pressure,TIS,Speed,Direction
, degrees North, degrees East, m.s-1, m.s-1,m.s-1, 1, 1, 1, Volt, m.s-1, degree, degree, degree, dbar, degree_C, m.s-1, degree
2020-04-06T00:04:03,42.805,6.029,-0.014,0.007,-0.049,105.0,111.0,101.0,13.4,1505.3,325.6,-0.7,1.8,2470.157,13.33,0.015,296.6
2020-04-06T00:07:03,42.805,6.029,-0.007,0.022,-0.033,105.0,111.0,102.0,13.4,1505.4,325.4,-0.7,1.8,2470.21,13.34,0.023,342.4
2020-04-06T00:10:03,42.805,6.029,0.016,0.021,0.006,103.0,114.0,104.0,13.3,1505.4,323.6,-0.7,1.8,2470.253,13.34,0.026,37.3
2020-04-06T00:13:03,42.805,6.029,0.014,0.008,-0.022,105.0,111.0,103.0,13.3,1505.4,325.8,-0.7,1.9,2470.199,13.34,0.016,60.3
2020-04-06T00:16:03,42.805,6.029,0.031,0.024,-0.021,105.0,112.0,102.0,13.4,1505.4,327.3,-0.7,1.8,2470.234,13.34,0.039,52.3
2020-04-06T00:19:03,42.805,6.029,-0.004,0.017,-0.022,104.0,111.0,102.0,13.4,1505.4,327.3,-0.7,1.8,2470.197,13.35,0.017,346.8
2020-04-06T00:22:03,42.805,6.029,0.019,0.022,-0.035,105.0,111.0,102.0,13.4,1505.4,327.9,-0.7,1.8,2470.181,13.35,0.029,40.8
2020-04-06T00:25:03,42.805,6.029,0.0,0.022,-0.038,107.0,111.0,103.0,13.3,1505.4,325.3,-0.7,1.9,2470.21,13.35,0.022,0.0
2020-04-06T00:28:03,42.805,6.029,0.0,0.044,-0.04,105.0,111.0,102.0,13.3,1505.4,326.1,-0.7,1.8,2470.154,13.35,0.044,0.0
2020-04-06T00:31:03,42.805,6.029,0.004,0.017,-0.027,105.0,112.0,102.0,13.4,1505.4,323.6,-0.7,1.8,2470.243,13.35,0.017,13.2
2020-04-06T00:34:03,42.805,6.029,-0.004,0.022,-0.047,104.0,111.0,102.0,13.4,1505.4,323.3,-0.7,1.8,2470.201,13.35,0.022,349.7
2020-04-06T00:37:03,42.805,6.029,-0.023,0.022,-0.024,103.0,112.0,102.0,13.4,1505.4,328.0,-0.7,1.8,2470.197,13.35,0.031,313.7
2020-04-06T00:40:03,42.805,6.029,0.011,0.028,-0.002,105.0,110.0,102.0,13.4,1505.4,324.9,-0.7,1.8,2470.222,13.35,0.03,21.4
2020-04-06T00:43:03,42.805,6.029,-0.021,0.015,-0.06,104.0,112.0,101.0,13.4,1505.4,326.6,-0.7,1.8,2470.21,13.35,0.025,305.5
2020-04-06T00:46:03,42.805,6.029,-0.024,0.032,-0.01,103.0,110.0,102.0,13.4,1505.4,326.2,-0.7,1.8,2470.211,13.35,0.04,323.1
2020-04-06T00:49:03,42.805,6.029,-0.002,0.03,-0.028,104.0,111.0,101.0,13.3,1505.4,324.7,-0.7,1.8,2470.219,13.35,0.03,356.2
2020-04-06T00:52:03,42.805,6.029,0.0,0.021,-0.05,106.0,111.0,102.0,13.3,1505.4,323.5,-0.7,1.8,2470.17,13.35,0.021,0.0
2020-04-06T00:55:03,42.805,6.029,0.006,0.015,-0.009,107.0,110.0,101.0,13.3,1505.4,326.8,-0.7,1.8,2470.191,13.35,0.016,21.8
2020-04-06T00:58:03,42.805,6.029,0.002,0.037,0.007,105.0,110.0,102.0,13.4,1505.4,324.4,-0.7,1.8,2470.192,13.35,0.037,3.1
2020-04-06T01:04:03,42.805,6.029,-0.003,0.038,-0.021,107.0,111.0,103.0,13.3,1505.3,323.0,-0.8,1.8,2470.265,13.33,0.038,355.5
2020-04-06T01:07:03,42.805,6.029,-0.019,0.013,-0.042,106.0,110.0,103.0,13.3,1505.4,325.0,-0.7,1.8,2470.234,13.34,0.023,304.4
2020-04-06T01:10:03,42.805,6.029,-0.012,0.037,-0.035,104.0,112.0,103.0,13.4,1505.4,328.1,-0.7,1.8,2470.215,13.34,0.038,342.0
2020-04-06T01:13:03,42.805,6.029,-0.016,0.025,-0.038,105.0,111.0,102.0,13.4,1505.4,326.5,-0.7,1.8,2470.238,13.34,0.029,327.4
2020-04-06T01:16:03,42.805,6.029,-0.01,0.032,0.001,105.0,111.0,104.0,13.3,1505.4,328.0,-0.7,1.8,2470.232,13.34,0.033,342.6
2020-04-06T01:19:03,42.805,6.029,0.026,0.017,-0.041,104.0,111.0,102.0,13.4,1505.4,326.6,-0.7,1.8,2470.228,13.34,0.031,56.8
2020-04-06T01:22:03,42.805,6.029,0.0,0.011,-0.037,103.0,112.0,103.0,13.4,1505.4,323.6,-0.7,1.9,2470.219,13.34,0.011,0.0
2020-04-06T01:25:03,42.805,6.029,0.026,0.017,-0.022,106.0,110.0,101.0,13.4,1505.4,322.9,-0.7,1.8,2470.245,13.34,0.031,56.8
2020-04-06T01:28:03,42.805,6.029,0.012,0.013,-0.044,105.0,111.0,101.0,13.3,1505.4,323.8,-0.7,1.8,2470.205,13.35,0.017,42.7
2020-04-06T01:31:03,42.805,6.029,-0.014,0.031,-0.04,104.0,111.0,101.0,13.4,1505.4,325.3,-0.7,1.8,2470.236,13.34,0.034,335.7
2020-04-06T01:34:03,42.805,6.029,0.0,0.023,-0.015,103.0,111.0,102.0,13.4,1505.4,323.4,-0.7,1.8,2470.248,13.35,0.023,0.0
2020-04-06T01:37:03,42.805,6.029,-0.013,0.015,-0.042,105.0,112.0,102.0,13.3,1505.4,323.4,-0.7,1.9,2470.239,13.35,0.019,319.1
2020-04-06T01:40:03,42.805,6.029,-0.01,0.0,-0.024,106.0,111.0,102.0,13.4,1505.4,323.0,-0.7,1.8,2470.238,13.35,0.01,270.0
2020-04-06T01:43:03,42.805,6.029,0.007,0.035,-0.012,105.0,112.0,102.0,13.4,1505.4,325.5,-0.7,1.9,2470.224,13.35,0.035,11.3
2020-04-06T01:46:03,42.805,6.029,-0.009,0.018,-0.035,106.0,111.0,102.0,13.4,1505.4,325.3,-0.7,1.8,2470.267,13.35,0.02,333.4
2020-04-06T01:49:03,42.805,6.029,0.0,0.018,-0.024,106.0,113.0,101.0,13.4,1505.4,322.7,-0.7,1.8,2470.272,13.35,0.018,0.0
2020-04-06T01:52:03,42.805,6.029,0.0,0.042,-0.021,103.0,110.0,102.0,13.3,1505.4,327.1,-0.7,1.8,2470.244,13.35,0.042,0.0
2020-04-06T01:55:03,42.805,6.029,0.013,0.032,-0.021,103.0,111.0,102.0,13.4,1505.4,323.9,-0.7,1.8,2470.279,13.35,0.034,22.1
2020-04-06T01:58:03,42.805,6.029,0.011,0.017,-0.025,103.0,112.0,101.0,13.3,1505.4,323.8,-0.7,1.9,2470.279,13.35,0.02,32.9
2020-04-06T02:04:03,42.805,6.029,0.013,0.037,-0.044,105.0,110.0,101.0,13.3,1505.3,324.8,-0.8,1.8,2470.297,13.33,0.039,19.4
2020-04-06T02:07:03,42.805,6.029,0.01,0.017,-0.024,103.0,111.0,102.0,13.4,1505.4,326.7,-0.7,1.8,2470.266,13.34,0.019,30.5
2020-04-06T02:10:03,42.805,6.029,0.012,0.023,-0.031,105.0,110.0,101.0,13.4,1505.4,323.0,-0.7,1.8,2470.302,13.34,0.025,27.6
2020-04-06T02:13:03,42.805,6.029,0.002,0.016,-0.045,103.0,111.0,102.0,13.4,1505.4,327.2,-0.7,1.8,2470.297,13.34,0.016,7.1
2020-04-06T02:16:03,42.805,6.029,0.016,0.028,-0.01,104.0,113.0,101.0,13.4,1505.4,323.8,-0.7,1.8,2470.273,13.34,0.032,29.7
2020-04-06T02:19:03,42.805,6.029,0.019,0.022,-0.024,104.0,111.0,101.0,13.4,1505.4,326.0,-0.7,1.8,2470.275,13.35,0.029,40.8
2020-04-06T02:22:03,42.805,6.029,0.029,0.019,0.005,105.0,112.0,102.0,13.3,1505.4,323.5,-0.7,1.8,2470.257,13.35,0.034,56.8
2020-04-06T02:25:03,42.805,6.029,0.005,0.022,-0.02,108.0,112.0,101.0,13.4,1505.4,326.5,-0.7,1.8,2470.33,13.34,0.022,12.8
2020-04-06T02:28:03,42.805,6.029,-0.011,0.006,-0.048,104.0,112.0,102.0,13.3,1505.4,325.5,-0.7,1.9,2470.255,13.35,0.012,298.6
2020-04-06T02:31:03,42.805,6.029,-0.01,0.013,-0.052,104.0,111.0,103.0,13.4,1505.4,328.0,-0.7,1.8,2470.315,13.35,0.016,322.4
2020-04-06T02:34:03,42.805,6.029,0.004,0.017,-0.041,103.0,113.0,101.0,13.3,1505.4,326.1,-0.7,1.8,2470.329,13.35,0.017,13.2
2020-04-06T02:37:03,42.805,6.029,-0.017,0.024,-0.045,105.0,110.0,102.0,13.3,1505.4,327.9,-0.7,1.8,2470.326,13.35,0.029,324.7
2020-04-06T02:40:03,42.805,6.029,-0.056,0.012,-0.058,105.0,109.0,102.0,13.4,1505.4,324.5,-0.7,1.8,2470.305,13.35,0.057,282.1
2020-04-06T02:43:03,42.805,6.029,-0.007,0.027,-0.052,106.0,111.0,102.0,13.4,1505.4,325.6,-0.7,1.9,2470.279,13.35,0.027,345.5
2020-04-06T02:46:03,42.805,6.029,0.01,0.018,-0.001,104.0,112.0,102.0,13.3,1505.4,323.8,-0.7,1.9,2470.285,13.35,0.02,29.1
2020-04-06T02:49:03,42.805,6.029,-0.029,0.037,-0.059,104.0,110.0,101.0,13.4,1505.4,326.8,-0.7,1.8,2470.278,13.35,0.047,321.9
2020-04-06T02:52:03,42.805,6.029,-0.025,0.007,-0.048,105.0,108.0,107.0,13.4,1505.4,324.6,-0.6,1.8,2470.334,13.35,0.025,285.6
2020-04-06T02:55:03,42.805,6.029,-0.013,0.015,-0.045,107.0,108.0,102.0,13.4,1505.4,326.9,-0.7,1.8,2470.317,13.35,0.019,319.1
2020-04-06T02:58:03,42.805,6.029,-0.02,0.031,-0.04,106.0,110.0,101.0,13.3,1505.4,323.1,-0.7,1.8,2470.313,13.35,0.036,327.2
2020-04-06T03:04:03,42.805,6.029,0.0,0.008,-0.03,106.0,112.0,101.0,13.3,1505.3,325.9,-0.8,1.8,2470.362,13.33,0.008,0.0
2020-04-06T03:07:03,42.805,6.029,0.018,0.031,-0.023,107.0,110.0,101.0,13.4,1505.3,325.7,-0.7,1.8,2470.329,13.33,0.035,30.1
2020-04-06T03:10:03,42.805,6.029,-0.03,0.037,-0.041,104.0,112.0,102.0,13.3,1505.4,326.5,-0.7,1.8,2470.361,13.34,0.047,321.0
2020-04-06T03:13:03,42.805,6.029,-0.003,0.008,-0.045,105.0,111.0,102.0,13.4,1505.4,324.5,-0.7,1.8,2470.313,13.34,0.008,339.4
2020-04-06T03:16:03,42.805,6.029,-0.018,0.004,-0.039,104.0,112.0,102.0,13.4,1505.4,323.8,-0.7,1.8,2470.391,13.34,0.018,282.5
2020-04-06T03:19:03,42.805,6.029,-0.012,0.012,-0.045,105.0,109.0,101.0,13.3,1505.4,324.6,-0.7,1.8,2470.35,13.34,0.016,315.0
2020-04-06T03:22:03,42.805,6.029,0.006,0.011,-0.015,105.0,110.0,101.0,13.4,1505.4,323.1,-0.7,1.8,2470.372,13.34,0.012,28.6
2020-04-06T03:25:03,42.805,6.029,-0.032,0.011,-0.037,105.0,108.0,101.0,13.3,1505.4,323.1,-0.7,1.8,2470.373,13.34,0.033,289.0
2020-04-06T03:28:03,42.805,6.029,-0.025,0.023,-0.046,108.0,106.0,102.0,13.4,1505.4,325.6,-0.7,1.8,2470.347,13.34,0.033,312.6
2020-04-06T03:31:03,42.805,6.029,-0.011,0.022,-0.029,104.0,107.0,102.0,13.4,1505.4,323.4,-0.7,1.8,2470.387,13.34,0.024,333.4
2020-04-06T03:34:03,42.805,6.029,-0.022,0.019,-0.048,105.0,110.0,102.0,13.3,1505.4,325.8,-0.7,1.8,2470.353,13.34,0.029,310.8
2020-04-06T03:37:03,42.805,6.029,-0.036,0.014,-0.057,103.0,108.0,104.0,13.4,1505.4,328.2,-0.7,1.8,2470.327,13.34,0.038,291.2
2020-04-06T03:40:03,42.805,6.029,-0.029,0.008,-0.06,106.0,110.0,102.0,13.4,1505.4,324.4,-0.7,1.8,2470.348,13.34,0.03,285.4
2020-04-06T03:43:03,42.805,6.029,0.002,0.026,-0.018,104.0,107.0,101.0,13.4,1505.4,326.9,-0.7,1.9,2470.37,13.34,0.026,4.4
2020-04-06T03:46:03,42.805,6.029,-0.062,0.032,-0.075,104.0,109.0,101.0,13.3,1505.4,324.5,-0.7,1.8,2470.386,13.34,0.069,297.3
2020-04-06T03:49:03,42.805,6.029,-0.005,0.029,-0.023,105.0,108.0,104.0,13.3,1505.4,323.7,-0.7,1.8,2470.371,13.34,0.029,350.2
2020-04-06T03:52:03,42.805,6.029,-0.005,0.025,0.002,104.0,109.0,101.0,13.4,1505.4,325.6,-0.7,1.8,2470.377,13.34,0.025,348.7
2020-04-06T03:55:03,42.805,6.029,-0.03,0.018,-0.066,105.0,107.0,102.0,13.4,1505.4,326.4,-0.7,1.8,2470.367,13.34,0.034,301.0
2020-04-06T03:58:03,42.805,6.029,-0.017,0.007,-0.046,104.0,109.0,102.0,13.4,1505.4,324.4,-0.7,1.8,2470.423,13.34,0.018,292.4
2020-04-06T04:04:03,42.805,6.029,-0.035,0.022,-0.045,105.0,108.0,101.0,13.4,1505.3,327.3,-0.7,1.8,2470.424,13.32,0.041,302.2
2020-04-06T04:07:03,42.805,6.029,-0.029,0.021,-0.043,105.0,107.0,101.0,13.4,1505.3,324.8,-0.8,1.8,2470.405,13.33,0.035,305.9
2020-04-06T04:10:03,42.805,6.029,-0.031,0.016,-0.05,104.0,109.0,102.0,13.4,1505.3,324.4,-0.7,1.8,2470.436,13.33,0.034,297.3
2020-04-06T04:13:03,42.805,6.029,0.004,-0.001,-0.022,104.0,109.0,102.0,13.3,1505.3,325.1,-0.7,1.8,2470.398,13.33,0.004,104.0
2020-04-06T04:16:03,42.805,6.029,-0.004,0.039,-0.02,103.0,109.0,101.0,13.4,1505.3,325.9,-0.7,1.8,2470.442,13.33,0.039,354.1
2020-04-06T04:19:03,42.805,6.029,-0.021,0.027,-0.024,106.0,108.0,102.0,13.3,1505.3,327.1,-0.7,1.9,2470.428,13.33,0.034,322.1
2020-04-06T04:22:03,42.805,6.029,-0.011,0.013,-0.06,104.0,109.0,102.0,13.4,1505.3,324.1,-0.7,1.8,2470.401,13.33,0.017,319.8
2020-04-06T04:25:03,42.805,6.029,-0.007,0.027,-0.034,106.0,110.0,102.0,13.4,1505.3,327.0,-0.7,1.8,2470.453,13.33,0.027,345.5
2020-04-06T04:28:03,42.805,6.029,-0.003,0.021,-0.026,104.0,107.0,103.0,13.4,1505.4,326.8,-0.7,1.9,2470.44,13.34,0.021,351.9
2020-04-06T04:31:03,42.805,6.029,-0.011,0.007,-0.04,106.0,108.0,102.0,13.4,1505.4,325.5,-0.7,1.8,2470.416,13.34,0.013,302.5
2020-04-06T04:34:03,42.805,6.029,-0.027,0.003,-0.059,105.0,107.0,101.0,13.3,1505.4,325.0,-0.7,1.9,2470.386,13.34,0.027,276.3
2020-04-06T04:37:03,42.805,6.029,-0.01,0.008,-0.057,105.0,106.0,103.0,13.4,1505.4,327.5,-0.8,1.8,2470.412,13.34,0.012,308.7
2020-04-06T04:40:03,42.805,6.029,-0.018,0.034,-0.04,105.0,107.0,102.0,13.4,1505.4,325.7,-0.7,1.9,2470.434,13.34,0.038,332.1
2020-04-06T04:43:03,42.805,6.029,-0.012,0.009,-0.025,104.0,107.0,103.0,13.4,1505.3,327.4,-0.7,1.8,2470.425,13.33,0.015,306.9
2020-04-06T04:46:03,42.805,6.029,-0.036,0.012,-0.063,106.0,107.0,101.0,13.4,1505.3,323.5,-0.7,1.8,2470.421,13.33,0.037,288.4
2020-04-06T04:49:03,42.805,6.029,-0.022,0.016,-0.041,105.0,108.0,101.0,13.3,1505.3,326.7,-0.7,1.8,2470.392,13.33,0.027,306.0
2020-04-06T04:52:03,42.805,6.029,-0.022,0.016,-0.053,105.0,107.0,101.0,13.3,1505.3,325.0,-0.7,1.8,2470.453,13.33,0.027,306.0
2020-04-06T04:55:03,42.805,6.029,-0.024,-0.003,-0.074,104.0,108.0,103.0,13.3,1505.3,328.4,-0.7,1.9,2470.414,13.33,0.024,262.9
2020-04-06T04:58:03,42.805,6.029,0.0,0.007,-0.033,105.0,108.0,102.0,13.4,1505.3,323.5,-0.8,1.9,2470.403,13.33,0.007,0.0
2020-04-06T05:04:03,42.805,6.029,-0.018,0.006,-0.028,105.0,107.0,103.0,13.3,1505.3,324.0,-0.8,1.8,2470.491,13.31,0.018,288.4
2020-04-06T05:07:03,42.805,6.029,-0.012,0.021,-0.011,105.0,107.0,103.0,13.4,1505.3,322.9,-0.7,1.9,2470.479,13.32,0.024,330.3
2020-04-06T05:10:03,42.805,6.029,-0.007,0.026,-0.028,105.0,109.0,102.0,13.4,1505.3,327.7,-0.7,1.8,2470.449,13.33,0.026,344.9
2020-04-06T05:13:03,42.805,6.029,0.0,0.0,-0.038,105.0,109.0,101.0,13.4,1505.3,325.0,-0.7,1.9,2470.446,13.33,0.0,0.0
2020-04-06T05:16:03,42.805,6.029,0.005,0.003,-0.037,105.0,108.0,102.0,13.3,1505.3,328.3,-0.7,1.8,2470.489,13.33,0.005,59.0
2020-04-06T05:19:03,42.805,6.029,-0.009,0.02,-0.005,105.0,108.0,101.0,13.3,1505.3,328.3,-0.7,1.8,2470.434,13.33,0.021,335.8
2020-04-06T05:22:03,42.805,6.029,-0.012,0.013,-0.01,105.0,109.0,102.0,13.3,1505.3,326.8,-0.7,1.8,2470.44,13.33,0.017,317.3
2020-04-06T05:25:03,42.805,6.029,-0.023,0.013,-0.048,106.0,109.0,102.0,13.4,1505.3,327.2,-0.7,1.8,2470.44,13.33,0.026,299.5
2020-04-06T05:28:03,42.805,6.029,-0.041,0.027,-0.042,105.0,111.0,102.0,13.3,1505.3,327.4,-0.7,1.8,2470.459,13.33,0.049,303.4
2020-04-06T05:31:03,42.805,6.029,-0.063,0.026,-0.053,106.0,109.0,100.0,13.4,1505.3,327.2,-0.7,1.8,2470.457,13.33,0.068,292.4
2020-04-06T05:34:03,42.805,6.029,-0.018,0.039,-0.046,104.0,110.0,102.0,13.4,1505.3,327.2,-0.7,1.8,2470.447,13.33,0.042,335.2
2020-04-06T05:37:03,42.805,6.029,-0.047,0.015,-0.056,106.0,109.0,102.0,13.4,1505.3,325.6,-0.7,1.9,2470.453,13.33,0.049,287.7
2020-04-06T05:40:03,42.805,6.029,-0.004,0.015,-0.029,106.0,110.0,103.0,13.4,1505.4,324.6,-0.7,1.8,2470.486,13.34,0.015,345.1
2020-04-06T05:43:03,42.805,6.029,-0.008,0.005,-0.031,106.0,111.0,102.0,13.4,1505.3,324.4,-0.7,1.8,2470.461,13.33,0.009,302.0
2020-04-06T05:46:03,42.805,6.029,-0.041,0.025,-0.074,105.0,109.0,103.0,13.4,1505.4,325.2,-0.7,1.8,2470.418,13.34,0.048,301.4
2020-04-06T05:49:03,42.805,6.029,-0.056,0.036,-0.042,105.0,109.0,102.0,13.4,1505.3,326.6,-0.7,1.9,2470.453,13.33,0.066,302.7
2020-04-06T05:52:03,42.805,6.029,-0.019,0.031,-0.04,104.0,109.0,102.0,13.3,1505.4,326.5,-0.7,1.8,2470.446,13.34,0.036,328.5
2020-04-06T05:55:03,42.805,6.029,-0.01,0.021,-0.036,104.0,111.0,104.0,13.4,1505.3,324.2,-0.7,1.8,2470.43,13.33,0.023,334.5
2020-04-06T05:58:03,42.805,6.029,-0.028,0.018,-0.042,104.0,109.0,102.0,13.4,1505.3,325.2,-0.7,1.8,2470.458,13.33,0.033,302.7
2020-04-06T06:04:03,42.805,6.029,0.0,0.036,0.009,105.0,109.0,102.0,13.4,1505.3,323.2,-0.7,1.8,2470.522,13.31,0.036,0.0
2020-04-06T06:07:03,42.805,6.029,0.0,0.024,-0.029,103.0,109.0,103.0,13.4,1505.3,325.9,-0.7,1.8,2470.472,13.32,0.024,0.0
2020-04-06T06:10:03,42.805,6.029,-0.012,0.025,-0.028,104.0,110.0,101.0,13.4,1505.3,325.8,-0.7,1.8,2470.502,13.33,0.027,334.4
2020-04-06T06:13:03,42.805,6.029,-0.021,0.015,0.0,104.0,109.0,102.0,13.4,1505.3,325.8,-0.7,1.8,2470.511,13.33,0.025,305.5
2020-04-06T06:16:03,42.805,6.029,-0.011,0.026,-0.033,104.0,108.0,101.0,13.4,1505.3,324.9,-0.7,1.8,2470.478,13.33,0.028,337.1
2020-04-06T06:19:03,42.805,6.029,-0.014,0.02,-0.044,105.0,107.0,102.0,13.4,1505.3,326.9,-0.7,1.8,2470.45,13.33,0.024,325.0
2020-04-06T06:22:03,42.805,6.029,-0.003,0.026,-0.036,104.0,110.0,101.0,13.4,1505.3,325.7,-0.7,1.8,2470.504,13.33,0.026,353.4
2020-04-06T06:25:03,42.805,6.029,-0.018,0.016,-0.01,103.0,107.0,103.0,13.4,1505.3,324.7,-0.7,1.8,2470.453,13.33,0.024,311.6
2020-04-06T06:28:03,42.805,6.029,-0.008,0.031,-0.006,105.0,109.0,102.0,13.4,1505.3,327.3,-0.7,1.8,2470.458,13.33,0.032,345.5
2020-04-06T06:31:03,42.805,6.029,-0.011,0.017,-0.031,105.0,110.0,100.0,13.4,1505.3,325.1,-0.7,1.8,2470.489,13.33,0.02,327.1
2020-04-06T06:34:03,42.805,6.029,-0.013,0.028,-0.018,104.0,109.0,102.0,13.4,1505.3,324.5,-0.7,1.9,2470.496,13.33,0.03,335.1
2020-04-06T06:37:03,42.805,6.029,-0.031,0.012,-0.025,105.0,109.0,101.0,13.4,1505.3,326.1,-0.7,1.8,2470.509,13.33,0.033,291.2
2020-04-06T06:40:03,42.805,6.029,-0.014,0.014,-0.036,104.0,108.0,102.0,13.3,1505.3,323.3,-0.7,1.8,2470.472,13.33,0.019,315.0
2020-04-06T06:43:03,42.805,6.029,-0.018,0.019,-0.039,106.0,109.0,101.0,13.4,1505.3,325.6,-0.7,1.8,2470.489,13.33,0.026,316.5
2020-04-06T06:46:03,42.805,6.029,-0.027,0.023,-0.04,106.0,110.0,101.0,13.4,1505.3,327.2,-0.7,1.8,2470.46,13.33,0.035,310.4
2020-04-06T06:49:03,42.805,6.029,-0.016,0.02,-0.032,106.0,110.0,101.0,13.4,1505.3,327.2,-0.7,1.9,2470.471,13.33,0.025,321.3
2020-04-06T06:52:03,42.805,6.029,-0.024,0.033,-0.027,104.0,109.0,101.0,13.4,1505.3,324.5,-0.7,1.8,2470.503,13.33,0.04,324.0
2020-04-06T06:55:03,42.805,6.029,-0.036,0.019,-0.037,105.0,109.0,101.0,13.4,1505.3,326.0,-0.7,1.8,2470.431,13.33,0.04,297.8
2020-04-06T06:58:03,42.805,6.029,-0.039,0.009,-0.071,107.0,108.0,101.0,13.4,1505.3,326.5,-0.7,1.9,2470.479,13.33,0.04,283.0
2020-04-06T07:04:03,42.805,6.029,-0.024,0.033,-0.035,104.0,108.0,102.0,13.4,1505.3,324.8,-0.7,1.8,2470.514,13.31,0.04,324.0
2020-04-06T07:07:03,42.805,6.029,-0.023,0.026,-0.041,103.0,108.0,101.0,13.3,1505.3,323.5,-0.7,1.8,2470.468,13.32,0.034,318.5
2020-04-06T07:10:03,42.805,6.029,-0.027,0.033,-0.035,105.0,108.0,102.0,13.3,1505.3,327.7,-0.7,1.8,2470.484,13.32,0.042,320.7
2020-04-06T07:13:03,42.805,6.029,-0.029,0.028,0.002,105.0,109.0,102.0,13.4,1505.3,325.3,-0.7,1.8,2470.478,13.33,0.04,314.0
2020-04-06T07:16:03,42.805,6.029,-0.027,0.027,-0.054,104.0,109.0,103.0,13.4,1505.3,325.4,-0.7,1.8,2470.508,13.33,0.038,315.0
2020-04-06T07:19:03,42.805,6.029,-0.03,0.027,-0.006,104.0,109.0,102.0,13.4,1505.3,325.4,-0.7,1.8,2470.475,13.33,0.04,312.0
2020-04-06T07:22:03,42.805,6.029,0.003,0.025,-0.013,105.0,111.0,102.0,13.4,1505.3,325.6,-0.7,1.8,2470.471,13.33,0.025,6.8
2020-04-06T07:25:03,42.805,6.029,-0.019,0.023,-0.022,105.0,109.0,101.0,13.4,1505.3,323.0,-0.7,1.8,2470.415,13.33,0.029,320.4
2020-04-06T07:28:03,42.805,6.029,-0.049,0.02,-0.04,106.0,109.0,103.0,13.4,1505.3,324.0,-0.7,1.8,2470.452,13.33,0.052,292.2
2020-04-06T07:31:03,42.805,6.029,-0.056,0.009,-0.06,106.0,109.0,102.0,13.4,1505.3,327.1,-0.7,1.9,2470.465,13.33,0.056,279.1
2020-04-06T07:34:03,42.805,6.029,-0.017,0.03,-0.001,106.0,109.0,101.0,13.4,1505.3,325.2,-0.7,1.9,2470.426,13.33,0.034,330.5
2020-04-06T07:37:03,42.805,6.029,-0.002,0.011,-0.064,105.0,109.0,103.0,13.4,1505.3,326.6,-0.7,1.9,2470.447,13.33,0.011,349.7
2020-04-06T07:40:03,42.805,6.029,-0.043,0.039,-0.052,106.0,109.0,103.0,13.4,1505.3,324.5,-0.7,1.8,2470.434,13.33,0.058,312.2
2020-04-06T07:43:03,42.805,6.029,-0.031,0.029,0.004,106.0,107.0,103.0,13.4,1505.3,324.3,-0.7,1.8,2470.431,13.33,0.042,313.1
2020-04-06T07:46:03,42.805,6.029,-0.051,0.025,-0.038,106.0,109.0,101.0,13.4,1505.3,326.5,-0.7,1.8,2470.436,13.33,0.056,296.1
2020-04-06T07:49:03,42.805,6.029,-0.007,0.043,-0.017,106.0,109.0,101.0,13.3,1505.3,327.9,-0.7,1.8,2470.411,13.33,0.043,350.8
2020-04-06T07:52:03,42.805,6.029,-0.038,0.005,-0.032,105.0,110.0,103.0,13.3,1505.3,328.3,-0.7,1.8,2470.418,13.33,0.038,277.5
2020-04-06T07:55:03,42.805,6.029,-0.049,0.029,-0.048,107.0,109.0,103.0,13.4,1505.3,326.7,-0.7,1.8,2470.428,13.33,0.056,300.6
2020-04-06T07:58:03,42.805,6.029,-0.018,0.025,0.005,106.0,112.0,103.0,13.4,1505.3,324.5,-0.7,1.8,2470.45,13.33,0.03,324.2
2020-04-06T08:04:03,42.805,6.029,0.0,0.027,-0.025,105.0,110.0,103.0,13.4,1505.3,324.9,-0.7,1.8,2470.448,13.31,0.026,0.0
2020-04-06T08:07:03,42.805,6.029,-0.015,0.044,-0.013,106.0,111.0,102.0,13.4,1505.3,327.6,-0.7,1.8,2470.464,13.32,0.046,341.2
2020-04-06T08:10:03,42.805,6.029,-0.03,0.043,-0.044,105.0,109.0,103.0,13.4,1505.3,326.6,-0.7,1.8,2470.42,13.32,0.052,325.1
2020-04-06T08:13:03,42.805,6.029,-0.016,0.031,-0.016,105.0,110.0,101.0,13.4,1505.3,323.5,-0.7,1.8,2470.399,13.33,0.034,332.7
2020-04-06T08:16:03,42.805,6.029,0.0,0.018,-0.031,103.0,109.0,103.0,13.4,1505.3,325.3,-0.7,1.9,2470.418,13.33,0.018,0.0
2020-04-06T08:19:03,42.805,6.029,-0.035,0.02,-0.065,104.0,110.0,102.0,13.3,1505.3,324.5,-0.7,1.9,2470.419,13.33,0.04,299.7
2020-04-06T08:22:03,42.805,6.029,-0.007,0.037,-0.009,106.0,108.0,101.0,13.4,1505.3,324.6,-0.7,1.8,2470.443,13.33,0.037,349.3
2020-04-06T08:25:03,42.805,6.029,-0.035,0.027,-0.071,102.0,109.0,103.0,13.4,1505.3,323.1,-0.7,1.8,2470.419,13.33,0.044,307.7
2020-04-06T08:28:03,42.805,6.029,-0.012,0.029,-0.027,105.0,110.0,100.0,13.4,1505.3,324.2,-0.7,1.8,2470.418,13.33,0.031,337.5
2020-04-06T08:31:03,42.805,6.029,-0.028,0.04,-0.036,104.0,110.0,102.0,13.4,1505.3,323.5,-0.7,1.9,2470.391,13.33,0.048,325.0
2020-04-06T08:34:03,42.805,6.029,-0.017,0.026,-0.041,104.0,111.0,101.0,13.4,1505.3,326.5,-0.7,1.9,2470.432,13.33,0.031,326.8
2020-04-06T08:37:03,42.805,6.029,-0.001,0.029,-0.011,104.0,111.0,101.0,13.4,1505.3,328.2,-0.7,1.8,2470.46,13.33,0.029,358.0
2020-04-06T08:40:03,42.805,6.029,-0.003,0.022,-0.008,104.0,111.0,102.0,13.3,1505.3,326.1,-0.7,1.9,2470.418,13.33,0.022,352.2
2020-04-06T08:43:03,42.805,6.029,-0.032,0.026,-0.046,105.0,110.0,101.0,13.4,1505.3,326.8,-0.7,1.8,2470.371,13.33,0.041,309.1
2020-04-06T08:46:03,42.805,6.029,-0.027,0.033,-0.032,105.0,109.0,102.0,13.3,1505.3,324.2,-0.7,1.8,2470.401,13.33,0.042,320.7
2020-04-06T08:49:03,42.805,6.029,-0.022,0.025,-0.036,106.0,110.0,102.0,13.4,1505.3,326.4,-0.7,1.8,2470.401,13.33,0.033,318.7
2020-04-06T08:52:03,42.805,6.029,-0.037,0.02,-0.007,105.0,111.0,102.0,13.4,1505.3,324.8,-0.7,1.9,2470.397,13.33,0.042,298.4
2020-04-06T08:55:03,42.805,6.029,-0.048,0.045,-0.041,106.0,110.0,101.0,13.4,1505.3,328.2,-0.7,1.8,2470.383,13.33,0.065,313.1
2020-04-06T08:58:03,42.805,6.029,-0.019,0.043,-0.053,105.0,110.0,102.0,13.4,1505.3,327.9,-0.7,1.8,2470.417,13.33,0.047,336.2
2020-04-06T09:04:03,42.805,6.029,-0.03,0.046,-0.016,105.0,110.0,102.0,13.4,1505.3,326.2,-0.8,1.8,2470.4,13.31,0.054,326.9
2020-04-06T09:07:03,42.805,6.029,-0.019,0.031,-0.034,107.0,111.0,102.0,13.4,1505.3,327.2,-0.7,1.8,2470.409,13.32,0.036,328.5
2020-04-06T09:10:03,42.805,6.029,0.0,0.039,0.017,106.0,112.0,102.0,13.3,1505.3,327.2,-0.7,1.8,2470.36,13.32,0.039,0.0
2020-04-06T09:13:03,42.805,6.029,0.0,0.033,-0.013,106.0,112.0,103.0,13.3,1505.3,326.8,-0.7,1.8,2470.347,13.32,0.033,0.0
2020-04-06T09:16:03,42.805,6.029,-0.032,0.035,-0.038,105.0,114.0,102.0,13.3,1505.3,326.3,-0.7,1.8,2470.372,13.33,0.047,317.6
2020-04-06T09:19:03,42.805,6.029,-0.02,0.029,-0.022,104.0,113.0,102.0,13.4,1505.3,324.2,-0.7,1.8,2470.384,13.33,0.035,325.4
2020-04-06T09:22:03,42.805,6.029,-0.044,0.028,-0.02,105.0,112.0,102.0,13.4,1505.3,326.8,-0.7,1.9,2470.378,13.33,0.052,302.5
2020-04-06T09:25:03,42.805,6.029,-0.034,0.046,-0.018,104.0,113.0,102.0,13.4,1505.3,323.5,-0.7,1.9,2470.413,13.33,0.057,323.5
2020-04-06T09:28:03,42.805,6.029,-0.048,0.044,-0.046,104.0,115.0,102.0,13.4,1505.3,326.3,-0.7,1.8,2470.375,13.33,0.065,312.5
2020-04-06T09:31:03,42.805,6.029,-0.017,0.022,-0.031,105.0,112.0,103.0,13.4,1505.3,324.6,-0.7,1.8,2470.363,13.33,0.027,322.3
2020-04-06T09:34:03,42.805,6.029,-0.009,0.037,-0.009,104.0,112.0,102.0,13.4,1505.3,326.4,-0.7,1.8,2470.389,13.33,0.038,346.3
2020-04-06T09:37:03,42.805,6.029,-0.018,0.049,0.01,104.0,112.0,102.0,13.3,1505.3,323.1,-0.7,1.8,2470.338,13.33,0.052,339.8
2020-04-06T09:40:03,42.805,6.029,-0.032,0.018,-0.055,104.0,113.0,101.0,13.4,1505.3,323.2,-0.7,1.9,2470.35,13.33,0.036,299.4
2020-04-06T09:46:03,42.805,6.029,-0.028,0.011,-0.032,104.0,113.0,101.0,13.3,1505.3,324.1,-0.7,1.8,2470.406,13.31,0.03,291.4
2020-04-06T09:49:03,42.805,6.029,-0.006,0.02,-0.027,105.0,114.0,102.0,13.3,1505.3,326.2,-0.8,1.9,2470.373,13.32,0.02,343.3
2020-04-06T09:52:03,42.805,6.029,-0.006,0.025,0.02,104.0,112.0,101.0,13.3,1505.3,323.8,-0.7,1.8,2470.367,13.32,0.025,346.5
2020-04-06T09:55:03,42.805,6.029,-0.001,0.021,-0.024,107.0,112.0,103.0,13.3,1505.3,327.8,-0.7,1.8,2470.392,13.33,0.021,357.3
2020-04-06T09:58:03,42.805,6.029,-0.023,0.017,-0.061,106.0,115.0,101.0,13.4,1505.3,325.1,-0.7,1.9,2470.343,13.33,0.028,306.5
2020-04-06T10:04:03,42.805,6.029,-0.053,0.065,-0.043,104.0,111.0,102.0,13.4,1505.3,325.6,-0.7,1.8,2470.358,13.31,0.083,320.8